Home > Time Zones > World Clock > Weather > Iran > Tabriz > Past weeks

Flag for Iran Weather past 2 weeks in Tabriz, Iran

Now
48 °F

Sunny.


Feels Like: 46 °F
Forecast: 40 / 62 °F
Wind: 5 mph from Northeast

Location: Tabriz Airport

Current Time: Oct 25, 2014 at 9:18:15 AM

Latest Report: Oct 25, 2014 at 8:30 AM


Visibility: 4 mi

Pressure: 30.12 "Hg

Humidity: 82%

Dew point: 43 °F

Location of TabrizLocation

Historic Weather in Tabriz — Graph

°F

Tabriz temperature yesterday

Maximum temperature yesterday: 64 °F (at 2:00 PM)
Minimum temperature yesterday: 43 °F (at 5:30 AM)
Average temperature yesterday: 55 °F

Past Weeks' High & Low Weather Summary

 TemperatureHumidityPressure
High77 °F (Oct 12, 3:30 PM)100% (Oct 13, 9:30 PM)30.36 "Hg (Oct 13, 9:30 PM)
Low36 °F (Oct 20, 6:30 AM)24% (Oct 12, 3:30 PM)29.86 "Hg (Oct 19, 4:20 AM)
Average55 °F73%30.14 "Hg
* Reported Oct 10 7:30 AM — Oct 25 8:00 AM, Tabriz, Weather by CustomWeather, © 2014

Note: Actual official high and low records may vary slightly from our data, if they occured in-between our weather recording intervals... More about our weather records

Advertising

Tabriz weather history for previous 24 hours

 ConditionsComfort  
Time TempWeatherWind HumidityBarometerVisibility
8:00 AM
Oct 25
46 °FSunny.5 mph82%30.12 "Hg4 mi
7:30 AM45 °FSunny.5 mph87%30.12 "Hg10 mi
7:00 AM45 °FClear.No wind87%30.12 "Hg10 mi
5:30 AM45 °FClear.7 mph87%30.12 "Hg10 mi
4:30 AM45 °FClear.7 mph87%30.12 "Hg10 mi
3:30 AM45 °FClear.7 mph87%30.12 "Hg10 mi
2:30 AM46 °FClear.7 mph82%30.15 "Hg10 mi
1:30 AM46 °FClear.5 mph87%30.12 "Hg10 mi
12:30 AM46 °FClear.5 mph87%30.15 "Hg10 mi
11:30 PM
Oct 24
48 °FClear.5 mph82%30.15 "Hg10 mi
10:30 PM50 °FClear.5 mph82%30.15 "Hg10 mi
9:30 PM50 °FClear.5 mph88%30.12 "Hg10 mi
8:30 PM50 °FClear.No wind88%30.12 "Hg10 mi
7:30 PM54 °FClear.No wind72%30.15 "Hg10 mi
6:30 PM57 °FClear.5 mph63%30.12 "Hg10 mi
6:00 PM61 °FPassing clouds.2 mph52%30.12 "HgN/A
5:30 PM63 °FPassing clouds.5 mph45%30.12 "HgN/A
5:00 PM64 °FPassing clouds.5 mph40%30.12 "HgN/A
4:30 PM64 °FPassing clouds.7 mph37%30.12 "HgN/A
4:00 PM64 °FPassing clouds.5 mph37%30.12 "HgN/A
3:30 PM64 °FPassing clouds.5 mph43%30.12 "HgN/A
3:00 PM64 °FPassing clouds.7 mph40%30.12 "HgN/A
2:30 PM64 °FPassing clouds.5 mph46%30.12 "HgN/A
2:00 PM64 °FPassing clouds.7 mph46%30.15 "HgN/A
1:30 PM63 °FPassing clouds.9 mph49%30.15 "HgN/A
1:00 PM63 °FSunny.7 mph52%30.15 "Hg5 mi
12:30 PM61 °FSunny.7 mph52%30.15 "Hg4 mi
12:00 PM61 °FSunny.5 mph59%30.15 "Hg3 mi
11:30 AM59 °FHaze.7 mph63%30.15 "Hg3 mi
11:00 AM59 °FHaze.2 mph63%30.18 "Hg3 mi
10:30 AM57 °FHaze.No wind63%30.18 "Hg3 mi
10:00 AM54 °FHaze.5 mph72%30.18 "Hg3 mi
9:30 AM52 °FHaze.5 mph72%30.18 "Hg2 mi
9:00 AM52 °FHaze.5 mph77%30.18 "Hg2 mi
Weather by CustomWeather, © 2014

See weather overviewHow to use our weather pages